Location: Unspecified
(40.9447°N, 78.9903°W)
Time: 18:09:30
(UTC-05:00)

Tiangong - Visible Passes

Search period start: 20 January 2022 00:00
Search period end: 30 January 2022 00:00
Orbit: 383 x 386 km, 41.5° (Epoch: 20 January)

Date Brightness Start Highest point End Pass type
(mag) Time Alt. Az. Time Alt. Az. Time Alt. Az.
26 Jan 2.7 18:55:36 10° SSW 18:58:07 23° SSE 18:58:07 23° SSE visible
27 Jan 3.4 17:56:50 10° S 17:58:34 14° SSE 18:00:19 10° ESE visible
27 Jan 3.0 19:31:52 10° WSW 19:33:34 28° SW 19:33:34 28° SW visible
28 Jan 2.0 18:32:17 10° SW 18:35:14 36° SSE 18:36:43 22° ESE visible
28 Jan 4.7 20:08:46 10° W 20:08:55 11° W 20:08:55 11° W visible
29 Jan 1.0 19:08:55 10° WSW 19:12:01 78° S 19:12:01 78° S visible
